1507676400.24,20433,9.88,73560.8,-2.57,-3.35,-3.35,0,*56
1507676401.43,20434,9.88,73574.5,-2.57,-3.39,-3.35,0,*5D
1507676402.63,20435,9.88,73580.0,-2.57,-3.39,-3.35,0,*5C
1507676403.82,20436,9.88,73580.8,-2.57,-3.39,-3.35,0,*5F
1507676405.02,20437,9.88,73576.0,-2.57,-3.39,-3.35,0,*5E
1507676406.21,20438,9.88,73582.3,-2.57,-3.39,-3.39,0,*5D
1507676407.41,20439,9.88,73580.3,-2.57,-3.39,-3.39,0,*5C
1507676408.6,20440,9.88,73576.8,-2.57,-3.35,-3.35,0,*52
1507676409.8,20441,9.88,73582.5,-2.57,-3.35,-3.35,0,*53
1507676410.99,20442,9.88,73584.8,-2.57,-3.31,-3.35,0,*54
1507676412.19,20443,9.88,73588.5,-2.57,-3.35,-3.35,0,*51
1507676413.38,20444,9.88,73590.8,-2.57,-3.35,-3.35,0,*56
1507676414.58,20445,9.88,73590.0,-2.57,-3.31,-3.35,0,*53
1507676415.8,20446,9.88,73588.3,-2.55,-3.31,-3.31,0,*56
1507676417.02,20447,9.88,73590.3,-2.55,-3.31,-3.27,0,*50
1507676418.24,20448,9.88,73592.5,-2.55,-3.31,-3.31,0,*58
1507676419.46,20449,9.88,73586.5,-2.55,-3.31,-3.31,0,*59
1507676420.68,20450,9.88,73592.0,-2.55,-3.31,-3.31,0,*51
1507676421.9,20451,9.88,73594.3,-2.55,-3.31,-3.31,0,*50
1507676423.09,20452,9.88,73588.8,-2.57,-3.35,-3.35,0,*51
1507676424.29,20453,9.88,73582.0,-2.57,-3.35,-3.35,0,*50
1507676425.51,20454,9.88,73578.0,-2.55,-3.31,-3.31,0,*55
1507676426.7,20455,9.88,73584.5,-2.57,-3.31,-3.35,0,*52
1507676427.9,20456,9.88,73584.8,-2.57,-3.35,-3.35,0,*55
1507676429.09,20457,9.88,73584.8,-2.57,-3.35,-3.35,0,*54
1507676430.32,20458,9.88,73584.3,-2.59,-3.39,-3.39,0,*55
1507676431.54,20459,9.88,73582.0,-2.55,-3.27,-3.31,0,*5F
1507676432.73,20460,9.88,73572.3,-2.57,-3.35,-3.35,0,*50
1507676433.93,20461,9.88,73576.3,-2.57,-3.31,-3.35,0,*55
1507676435.12,20462,9.88,73600.0,-2.57,-3.35,-3.35,0,*52
1507676436.32,20463,9.88,73600.0,-2.57,-3.39,-3.39,0,*53
1507676437.51,20464,9.88,73600.8,-2.57,-3.39,-3.39,0,*54
1507676438.71,20465,9.88,73590.3,-2.57,-3.39,-3.39,0,*55
1507676439.95,20466,9.88,73586.3,-2.59,-3.39,-3.43,0,*55
1507676441.2,20467,9.88,73588.0,-2.59,-3.39,-3.43,0,*54
1507676442.44,20468,9.88,73598.0,-2.59,-3.39,-3.43,0,*5B
1507676443.64,20469,9.88,73596.8,-2.57,-3.35,-3.39,0,*55
1507676444.83,20470,9.88,73606.0,-2.57,-3.35,-3.39,0,*5D
1507676446.03,20471,9.88,73582.3,-2.57,-3.35,-3.39,0,*5C
1507676447.22,20472,9.88,73590.5,-2.57,-3.35,-3.39,0,*5F
1507676448.47,20473,9.88,73594.8,-2.59,-3.39,-3.43,0,*51
1507676449.66,20474,9.88,73582.8,-2.57,-3.35,-3.39,0,*59
1507676450.91,20475,9.88,73592.8,-2.59,-3.39,-3.43,0,*57
1507676452.1,20476,9.88,73596.3,-2.57,-3.35,-3.35,0,*57
1507676453.3,20477,9.88,73596.8,-2.57,-3.39,-3.35,0,*5A
1507676454.49,20478,9.88,73598.3,-2.57,-3.39,-3.39,0,*59
1507676455.7,20479,9.88,73586.5,-2.57,-3.39,-3.47,0,*51
1507676456.9,20480,9.88,73590.3,-2.57,-3.39,-3.39,0,*5E
1507676458.17,20481,9.88,73586.5,-2.59,-3.43,-3.43,0,*51
1507676459.36,20482,9.88,73590.8,-2.57,-3.39,-3.39,0,*5C
1507676460.55,20483,9.88,73592.0,-2.57,-3.39,-3.39,0,*5D
1507676461.75,20484,9.88,73588.0,-2.57,-3.39,-3.39,0,*5A
1507676463.01,20485,9.88,73590.5,-2.59,-3.43,-3.43,0,*55
1507676464.26,20486,9.88,73572.0,-2.59,-3.39,-3.43,0,*5B
1507676465.45,20487,9.88,73574.3,-2.57,-3.35,-3.39,0,*55
1507676466.7,20488,9.88,73572.8,-2.59,-3.39,-3.43,0,*55
1507676467.95,20489,9.88,73578.5,-2.59,-3.39,-3.43,0,*54
1507676469.19,20490,9.88,73584.0,-2.59,-3.39,-3.43,0,*5C
1507676470.39,20491,9.88,73592.8,-2.57,-3.35,-3.39,0,*52
1507676471.61,20492,9.88,73598.5,-2.59,-3.39,-3.39,0,*53
1507676472.8,20493,9.88,73596.0,-2.57,-3.35,-3.35,0,*5C
1507676474.03,20494,9.88,73594.0,-2.59,-3.39,-3.39,0,*55
1507676475.22,20495,9.88,73592.3,-2.57,-3.35,-3.35,0,*5A
1507676476.42,20496,9.88,73592.3,-2.57,-3.35,-3.35,0,*59
1507676477.61,20497,9.88,73598.0,-2.57,-3.31,-3.35,0,*5C
1507676478.81,20498,9.88,73600.8,-2.57,-3.35,-3.35,0,*57
1507676480.0,20499,9.88,73596.8,-2.57,-3.35,-3.35,0,*56
1507676481.23,20500,9.88,73592.5,-2.59,-3.39,-3.39,0,*59
1507676482.42,20501,9.88,73574.8,-2.57,-3.35,-3.35,0,*56
1507676483.65,20502,9.88,73568.3,-2.59,-3.39,-3.39,0,*5B
1507676484.84,20503,9.88,73586.5,-2.57,-3.35,-3.35,0,*54
1507676486.04,20504,9.88,73586.3,-2.57,-3.35,-3.35,0,*53
1507676487.23,20505,9.88,73590.0,-2.57,-3.39,-3.35,0,*5E
1507676488.45,20506,9.88,73580.3,-2.59,-3.39,-3.39,0,*5F
1507676489.65,20507,9.88,73574.5,-2.57,-3.35,-3.35,0,*50
1507676490.87,20508,9.88,73598.3,-2.59,-3.39,-3.39,0,*51
1507676492.1,20509,9.88,73586.3,-2.59,-3.35,-3.39,0,*5C
1507676493.34,20510,9.88,73588.0,-2.59,-3.43,-3.39,0,*55
1507676494.59,20511,9.88,73586.8,-2.59,-3.43,-3.39,0,*54
1507676495.86,20512,9.88,73588.0,-2.59,-3.51,-3.43,0,*59
1507676497.13,20513,9.88,73594.3,-2.59,-3.43,-3.43,0,*5B
1507676498.4,20514,9.88,73590.3,-2.59,-3.43,-3.43,0,*5C
1507676499.59,20515,9.88,73584.0,-2.57,-3.39,-3.35,0,*5F
1507676500.84,20516,9.88,73586.8,-2.59,-3.43,-3.39,0,*53
1507676502.08,20517,9.88,73580.0,-2.59,-3.43,-3.39,0,*52
1507676503.35,20518,9.88,73592.8,-2.59,-3.43,-3.43,0,*50
1507676504.62,20519,9.88,73598.5,-2.59,-3.43,-3.51,0,*52
1507676505.88,20520,9.88,73588.3,-2.59,-3.43,-3.51,0,*58
1507676507.15,20521,9.88,73598.5,-2.59,-3.43,-3.43,0,*5A
1507676508.35,20522,9.88,73598.0,-2.57,-3.39,-3.39,0,*57
1507676509.61,20523,9.88,73598.8,-2.59,-3.43,-3.43,0,*58
1507676510.88,20524,9.88,73588.0,-2.59,-3.43,-3.43,0,*5F
1507676512.12,20525,9.88,73582.0,-2.59,-3.39,-3.43,0,*53
1507676513.39,20526,9.88,73582.5,-2.59,-3.51,-3.51,0,*5D
1507676514.59,20527,9.88,73592.5,-2.57,-3.39,-3.39,0,*52
1507676515.86,20528,9.88,73590.8,-2.59,-3.51,-3.43,0,*50
1507676517.13,20529,9.88,73594.8,-2.59,-3.43,-3.43,0,*52
1507676518.39,20530,9.88,73588.8,-2.59,-3.43,-3.43,0,*5A
1507676519.66,20531,9.88,73604.0,-2.59,-3.43,-3.43,0,*5B
1507676520.93,20532,9.88,73602.0,-2.59,-3.43,-3.43,0,*58
1507676522.2,20533,9.88,73600.8,-2.59,-3.43,-3.43,0,*59
1507676523.39,20534,9.88,73602.5,-2.57,-3.35,-3.39,0,*5C
1507676524.64,20535,9.88,73598.0,-2.59,-3.39,-3.43,0,*52
1507676525.86,20536,9.88,73598.3,-2.59,-3.39,-3.39,0,*5C
1507676527.08,20537,9.88,73588.8,-2.59,-3.39,-3.39,0,*5D
1507676528.31,20538,9.88,73582.3,-2.59,-3.39,-3.39,0,*52
1507676529.5,20539,9.88,73580.8,-2.61,-3.39,-3.39,0,*58
1507676530.73,20540,9.88,73586.0,-2.59,-3.39,-3.35,0,*51
1507676531.95,20541,9.88,73586.0,-2.59,-3.39,-3.39,0,*5C
1507676533.15,20542,9.88,73600.0,-2.57,-3.31,-3.35,0,*55
1507676534.34,20543,9.88,73608.3,-2.57,-3.35,-3.35,0,*50
1507676535.57,20544,9.88,73590.3,-2.59,-3.39,-3.35,0,*55
1507676536.76,20545,9.88,73582.0,-2.57,-3.35,-3.35,0,*56
1507676537.96,20546,9.81,73580.5,-2.57,-3.31,-3.35,0,*51
1507676539.18,20547,9.88,73594.8,-2.59,-3.39,-3.39,0,*5A
1507676540.38,20548,9.88,73610.3,-2.57,-3.39,-3.35,0,*57
1507676541.62,20549,9.88,73602.0,-2.59,-3.43,-3.39,0,*59
1507676542.87,20550,9.88,73600.3,-2.59,-3.43,-3.39,0,*51
1507676544.06,20551,9.88,73602.8,-2.57,-3.39,-3.35,0,*5F
1507676545.29,20552,9.88,73610.8,-2.59,-3.39,-3.39,0,*5E
1507676546.51,20553,9.88,73602.8,-2.59,-3.39,-3.35,0,*53
1507676547.73,20554,9.88,73600.5,-2.59,-3.39,-3.39,0,*58
1507676548.96,20555,9.88,73612.5,-2.59,-3.39,-3.39,0,*59
1507676550.18,20556,9.88,73614.5,-2.59,-3.39,-3.39,0,*5A
1507676551.41,20557,9.88,73596.8,-2.59,-3.39,-3.39,0,*5B
1507676552.63,20558,9.88,73602.3,-2.59,-3.39,-3.39,0,*54
1507676553.85,20559,9.88,73614.8,-2.59,-3.39,-3.39,0,*55
1507676555.08,20560,9.88,73624.5,-2.59,-3.39,-3.39,0,*5F
1507676556.3,20561,9.88,73618.0,-2.59,-3.35,-3.39,0,*52
1507676557.53,20562,9.88,73590.3,-2.59,-3.39,-3.27,0,*52
1507676558.75,20563,9.88,73578.8,-2.59,-3.35,-3.39,0,*50
1507676559.98,20564,9.88,73582.5,-2.59,-3.35,-3.39,0,*57
1507676561.2,20565,9.88,73584.3,-2.59,-3.39,-3.39,0,*5A
1507676562.42,20566,9.88,73580.3,-2.59,-3.39,-3.39,0,*59
1507676563.65,20567,9.88,73592.0,-2.59,-3.39,-3.39,0,*58
1507676564.87,20568,9.88,73604.0,-2.59,-3.39,-3.39,0,*57
1507676566.1,20569,9.88,73596.5,-2.59,-3.39,-3.39,0,*56
1507676567.32,20570,9.88,73592.8,-2.59,-3.35,-3.39,0,*52
1507676568.54,20571,9.88,73592.5,-2.59,-3.39,-3.39,0,*5F
1507676569.77,20572,9.88,73594.0,-2.59,-3.35,-3.39,0,*50
1507676570.99,20573,9.88,73596.0,-2.59,-3.39,-3.39,0,*5D
1507676572.22,20574,9.88,73594.8,-2.59,-3.35,-3.39,0,*56
1507676573.44,20575,9.88,73600.5,-2.59,-3.39,-3.39,0,*5B
1507676574.64,20576,9.88,73592.5,-2.61,-3.39,-3.39,0,*53
1507676575.83,20577,9.81,73596.0,-2.57,-3.35,-3.35,0,*57
1507676577.06,20578,9.88,73608.3,-2.59,-3.39,-3.35,0,*5A
1507676578.28,20579,9.88,73604.3,-2.59,-3.35,-3.39,0,*5B
1507676579.51,20580,9.88,73602.8,-2.59,-3.35,-3.35,0,*51
1507676580.73,20581,9.88,73602.5,-2.59,-3.39,-3.35,0,*5C
1507676581.96,20582,9.88,73606.0,-2.59,-3.39,-3.39,0,*53
1507676583.15,20583,9.81,73604.5,-2.57,-3.31,-3.31,0,*5C
1507676584.37,20584,9.88,73600.3,-2.59,-3.39,-3.39,0,*55
1507676585.6,20585,9.88,73602.0,-2.59,-3.35,-3.39,0,*58
1507676586.79,20586,9.88,73596.5,-2.57,-3.31,-3.31,0,*59
1507676588.01,20587,9.88,73596.8,-2.59,-3.39,-3.35,0,*5A
1507676589.23,20588,9.88,73592.0,-2.59,-3.35,-3.39,0,*55
1507676590.43,20589,9.88,73586.0,-2.57,-3.31,-3.35,0,*52
1507676591.62,20590,9.88,73586.5,-2.57,-3.31,-3.35,0,*5A
1507676592.85,20591,9.88,73608.5,-2.59,-3.39,-3.39,0,*51
1507676594.07,20592,9.88,73602.0,-2.59,-3.35,-3.35,0,*52
1507676595.3,20593,9.88,73596.0,-2.59,-3.35,-3.39,0,*5F
1507676596.49,20594,9.88,73576.5,-2.57,-3.31,-3.31,0,*5A
1507676597.68,20595,9.88,73580.5,-2.57,-3.31,-3.31,0,*5B
1507676598.91,20596,9.88,73588.3,-2.59,-3.39,-3.39,0,*56
1507676600.13,20597,9.81,73590.5,-2.59,-3.39,-3.35,0,*5B
1507676601.35,20598,9.88,73580.5,-2.59,-3.35,-3.39,0,*54
1507676602.58,20599,9.88,73574.8,-2.59,-3.39,-3.35,0,*55
1507676603.77,20600,9.88,73598.3,-2.57,-3.31,-3.35,0,*50
1507676605.0,20601,9.88,73592.8,-2.59,-3.35,-3.39,0,*57
1507676606.22,20602,9.88,73588.3,-2.59,-3.35,-3.39,0,*54
1507676607.45,20603,9.81,73574.5,-2.59,-3.39,-3.39,0,*59
1507676608.67,20604,9.88,73580.8,-2.59,-3.35,-3.35,0,*5E
1507676609.89,20605,9.88,73564.8,-2.59,-3.35,-3.39,0,*53
1507676611.12,20606,9.88,73564.8,-2.59,-3.39,-3.39,0,*5C
1507676612.34,20607,9.88,73574.0,-2.59,-3.35,-3.35,0,*5D
1507676613.57,20608,9.88,73582.5,-2.59,-3.35,-3.39,0,*5E
1507676614.79,20609,9.88,73590.5,-2.59,-3.39,-3.27,0,*5C
1507676616.02,20610,9.88,73592.3,-2.59,-3.39,-3.39,0,*5B
1507676617.24,20611,9.81,73594.3,-2.59,-3.39,-3.39,0,*5A
1507676618.47,20612,9.81,73598.0,-2.59,-3.35,-3.35,0,*59
1507676619.69,20613,9.88,73596.8,-2.59,-3.35,-3.39,0,*54
1507676620.92,20614,9.81,73592.5,-2.59,-3.35,-3.35,0,*5F
1507676622.14,20615,9.88,73606.8,-2.59,-3.39,-3.39,0,*5E
1507676623.36,20616,9.88,73596.3,-2.59,-3.39,-3.39,0,*5D
1507676624.59,20617,9.81,73584.5,-2.59,-3.39,-3.39,0,*5C
1507676625.78,20618,9.88,73586.8,-2.57,-3.35,-3.35,0,*5D
1507676627.01,20619,9.81,73572.8,-2.59,-3.35,-3.39,0,*5E
1507676628.23,20620,9.81,73566.8,-2.59,-3.39,-3.39,0,*58
1507676629.46,20621,9.81,73590.8,-2.59,-3.35,-3.35,0,*59
1507676630.68,20622,9.81,73582.5,-2.59,-3.39,-3.39,0,*5A
1507676631.9,20623,9.88,73584.8,-2.59,-3.35,-3.39,0,*57
1507676633.13,20624,9.88,73586.5,-2.59,-3.39,-3.39,0,*5C
1507676634.35,20625,9.88,73590.3,-2.59,-3.39,-3.35,0,*51
1507676635.58,20626,9.88,73598.3,-2.59,-3.35,-3.35,0,*5E
1507676636.77,20627,9.88,73602.5,-2.57,-3.39,-3.35,0,*5D
1507676637.99,20628,9.88,73594.5,-2.59,-3.39,-3.39,0,*50
1507676639.22,20629,9.88,73594.3,-2.59,-3.39,-3.39,0,*51
1507676640.44,20630,9.88,73592.5,-2.59,-3.35,-3.39,0,*55
1507676641.67,20631,9.88,73598.8,-2.59,-3.35,-3.39,0,*54
1507676642.86,20632,9.88,73592.0,-2.57,-3.35,-3.35,0,*55
1507676644.09,20633,9.88,73588.5,-2.59,-3.35,-3.39,0,*56
1507676645.31,20634,9.88,73590.5,-2.59,-3.35,-3.39,0,*51
1507676646.54,20635,9.88,73598.3,-2.59,-3.39,-3.39,0,*5C
1507676647.76,20636,9.81,73602.0,-2.59,-3.35,-3.39,0,*53
1507676648.95,20637,9.88,73604.5,-2.57,-3.35,-3.39,0,*5C
1507676650.18,20638,9.81,73602.0,-2.59,-3.39,-3.35,0,*5D
1507676651.4,20639,9.88,73602.3,-2.59,-3.35,-3.39,0,*5C
1507676652.63,20640,9.88,73606.5,-2.59,-3.39,-3.39,0,*5E
1507676653.85,20641,9.88,73604.0,-2.59,-3.39,-3.35,0,*53
1507676655.07,20642,9.88,73596.3,-2.59,-3.39,-3.35,0,*50
1507676656.3,20643,9.88,73588.5,-2.59,-3.39,-3.35,0,*51
1507676657.52,20644,9.88,73592.5,-2.59,-3.35,-3.39,0,*56
1507676658.75,20645,9.88,73596.0,-2.59,-3.35,-3.39,0,*57
1507676659.97,20646,9.88,73598.3,-2.59,-3.35,-3.39,0,*54
1507676661.2,20647,9.81,73594.3,-2.59,-3.35,-3.35,0,*59
1507676662.42,20648,9.81,73592.0,-2.59,-3.39,-3.35,0,*5A
1507676663.65,20649,9.81,73592.8,-2.59,-3.39,-3.35,0,*5B
1507676664.87,20650,9.88,73602.0,-2.59,-3.39,-3.35,0,*53
1507676666.09,20651,9.81,73594.8,-2.59,-3.39,-3.35,0,*52
1507676667.32,20652,9.88,73596.5,-2.59,-3.39,-3.39,0,*5D
1507676668.54,20653,9.88,73600.5,-2.59,-3.35,-3.35,0,*5C
1507676669.73,20654,9.88,73606.0,-2.57,-3.35,-3.31,0,*51
1507676670.96,20655,9.88,73598.5,-2.59,-3.35,-3.35,0,*5A
1507676672.15,20656,9.88,73594.3,-2.57,-3.31,-3.31,0,*57
1507676673.35,20657,9.88,73588.3,-2.61,-3.35,-3.39,0,*5F
1507676674.57,20658,9.88,73594.0,-2.59,-3.39,-3.35,0,*5B
1507676675.8,20659,9.88,73598.5,-2.59,-3.39,-3.35,0,*5A
1507676676.99,20660,9.81,73602.8,-2.57,-3.35,-3.35,0,*52
1507676678.22,20661,9.88,73608.8,-2.59,-3.35,-3.35,0,*5D
1507676679.41,20662,9.81,73614.0,-2.57,-3.35,-3.31,0,*54
1507676680.63,20663,9.88,73612.3,-2.59,-3.35,-3.39,0,*53
1507676681.83,20664,9.88,73610.8,-2.57,-3.31,-3.31,0,*56
1507676683.05,20665,9.88,73618.5,-2.59,-3.39,-3.39,0,*59
1507676684.24,20666,9.88,73618.5,-2.57,-3.39,-3.35,0,*58
1507676685.44,20667,9.81,73610.5,-2.61,-3.35,-3.39,0,*5C
1507676686.67,20668,9.81,73614.3,-2.59,-3.39,-3.39,0,*54
1507676687.86,20669,9.81,73614.5,-2.57,-3.35,-3.35,0,*5B
1507676689.09,20670,9.88,73612.8,-2.59,-3.35,-3.35,0,*5D
1507676690.31,20671,9.81,73606.3,-2.59,-3.39,-3.35,0,*50
1507676691.53,20672,9.88,73598.8,-2.59,-3.39,-3.39,0,*5F
1507676692.76,20673,9.88,73598.8,-2.59,-3.39,-3.35,0,*52
1507676693.95,20674,9.88,73610.5,-2.57,-3.35,-3.35,0,*57
1507676695.18,20675,9.88,73606.3,-2.59,-3.39,-3.39,0,*58
1507676696.4,20676,9.88,73606.5,-2.59,-3.39,-3.39,0,*5B
1507676697.62,20677,9.88,73610.0,-2.59,-3.39,-3.35,0,*56
1507676698.85,20678,9.88,73600.0,-2.59,-3.39,-3.39,0,*55
1507676700.04,20679,9.81,73596.0,-2.57,-3.31,-3.31,0,*5A
1507676701.24,20680,9.88,73592.5,-2.57,-3.35,-3.35,0,*5C
1507676702.46,20681,9.81,73590.0,-2.59,-3.39,-3.39,0,*53
1507676703.68,20682,9.81,73590.8,-2.59,-3.39,-3.39,0,*50
1507676704.91,20683,9.88,73602.5,-2.59,-3.39,-3.39,0,*51
1507676706.13,20684,9.88,73598.3,-2.59,-3.35,-3.39,0,*5A
1507676707.36,20685,9.88,73586.8,-2.59,-3.39,-3.35,0,*5B
1507676708.58,20686,9.81,73584.8,-2.59,-3.39,-3.39,0,*54
1507676709.77,20687,9.88,73588.0,-2.57,-3.35,-3.35,0,*5B
1507676711.0,20688,9.81,73594.0,-2.59,-3.39,-3.39,0,*5A
1507676712.19,20689,9.88,73602.3,-2.57,-3.35,-3.35,0,*55
1507676713.42,20690,9.88,73594.3,-2.59,-3.35,-3.39,0,*5F
1507676714.61,20691,9.81,73592.0,-2.57,-3.31,-3.31,0,*5C
1507676715.83,20692,9.88,73602.8,-2.59,-3.35,-3.35,0,*51
1507676717.06,20693,9.88,73596.5,-2.59,-3.35,-3.39,0,*5C
1507676718.28,20694,9.81,73594.0,-2.59,-3.35,-3.35,0,*57
1507676719.51,20695,9.81,73592.3,-2.59,-3.39,-3.39,0,*56
1507676720.7,20696,9.88,73592.3,-2.57,-3.39,-3.39,0,*5B
1507676721.93,20697,9.81,73584.5,-2.59,-3.39,-3.39,0,*54
1507676723.12,20698,9.81,73594.0,-2.57,-3.35,-3.35,0,*55
1507676724.34,20699,9.81,73588.5,-2.59,-3.39,-3.35,0,*56
1507676725.54,20700,9.81,73588.3,-2.57,-3.35,-3.35,0,*55
1507676726.76,20701,9.88,73600.0,-2.59,-3.39,-3.35,0,*56
1507676727.99,20702,9.88,73598.3,-2.59,-3.39,-3.39,0,*59
1507676729.21,20703,9.81,73592.3,-2.59,-3.35,-3.35,0,*58
1507676730.41,20704,9.81,73588.3,-2.57,-3.31,-3.35,0,*55
1507676731.63,20705,9.81,73586.8,-2.59,-3.39,-3.39,0,*5E
1507676732.86,20706,9.88,73594.3,-2.59,-3.35,-3.35,0,*5D
1507676734.08,20707,9.81,73586.8,-2.59,-3.35,-3.39,0,*50
1507676735.3,20708,9.81,73594.5,-2.59,-3.39,-3.39,0,*53
1507676736.5,20709,9.81,73602.3,-2.57,-3.35,-3.35,0,*5C
1507676737.72,20710,9.81,73602.5,-2.59,-3.39,-3.39,0,*5A
1507676738.95,20711,9.81,73600.3,-2.59,-3.35,-3.39,0,*57
1507676740.17,20712,9.81,73598.8,-2.59,-3.35,-3.39,0,*54
1507676741.4,20713,9.88,73600.0,-2.59,-3.35,-3.39,0,*55
1507676742.62,20714,9.88,73598.8,-2.59,-3.39,-3.35,0,*52
1507676743.84,20715,9.81,73596.3,-2.59,-3.39,-3.39,0,*5F
1507676745.07,20716,9.81,73600.3,-2.59,-3.35,-3.39,0,*50
1507676746.29,20717,9.81,73598.0,-2.59,-3.35,-3.35,0,*5D
1507676747.52,20718,9.81,73596.5,-2.59,-3.35,-3.35,0,*52
1507676748.71,20719,9.81,73596.8,-2.57,-3.31,-3.31,0,*5D
1507676749.93,20720,9.81,73598.5,-2.59,-3.35,-3.39,0,*55
1507676751.16,20721,9.81,73596.8,-2.59,-3.35,-3.35,0,*58
1507676752.38,20722,9.81,73596.0,-2.59,-3.35,-3.35,0,*5B
1507676753.61,20723,9.81,73592.0,-2.59,-3.39,-3.35,0,*56
1507676754.83,20724,9.81,73596.0,-2.59,-3.35,-3.39,0,*51
1507676756.06,20725,9.81,73596.8,-2.59,-3.39,-3.35,0,*50
1507676757.28,20726,9.88,73598.3,-2.59,-3.39,-3.35,0,*53
1507676758.47,20727,9.81,73596.0,-2.57,-3.23,-3.31,0,*53
1507676759.69,20728,9.81,73588.3,-2.59,-3.39,-3.35,0,*5D
1507676760.91,20729,9.81,73586.3,-2.59,-3.35,-3.39,0,*5C
1507676762.14,20730,9.81,73586.8,-2.59,-3.39,-3.35,0,*54
1507676763.33,20731,9.81,73590.0,-2.57,-3.35,-3.35,0,*57
1507676764.56,20732,9.88,73594.5,-2.59,-3.39,-3.39,0,*5A
1507676765.78,20733,9.81,73600.5,-2.59,-3.39,-3.39,0,*5B
1507676766.97,20734,9.81,73602.3,-2.57,-3.39,-3.39,0,*52
1507676768.17,20735,9.81,73606.5,-2.61,-3.39,-3.39,0,*56
1507676769.37,20736,9.81,73610.8,-2.61,-3.35,-3.35,0,*55
1507676770.57,20737,9.81,73616.0,-2.57,-3.35,-3.35,0,*51
1507676771.79,20738,9.88,73614.8,-2.59,-3.35,-3.39,0,*5C
1507676773.01,20739,9.81,73616.8,-2.59,-3.39,-3.39,0,*51
1507676774.24,20740,9.81,73618.5,-2.59,-3.39,-3.35,0,*53
1507676775.43,20741,9.81,73612.5,-2.57,-3.35,-3.39,0,*5C
1507676776.66,20742,9.81,73614.8,-2.59,-3.27,-3.35,0,*5E
1507676777.88,20743,9.81,73614.5,-2.59,-3.35,-3.35,0,*5C
1507676779.11,20744,9.81,73620.5,-2.59,-3.35,-3.35,0,*5B
1507676780.33,20745,9.81,73616.0,-2.59,-3.35,-3.35,0,*5A
1507676781.56,20746,9.81,73618.0,-2.59,-3.39,-3.39,0,*59
1507676782.78,20747,9.81,73614.8,-2.59,-3.27,-3.35,0,*5B
1507676784.0,20748,9.88,73618.8,-2.59,-3.35,-3.35,0,*57
1507676785.2,20749,9.81,73612.3,-2.57,-3.35,-3.31,0,*5C
1507676786.42,20750,9.81,73608.3,-2.59,-3.35,-3.35,0,*5E
1507676787.65,20751,9.81,73606.3,-2.59,-3.35,-3.35,0,*5F
1507676788.87,20752,9.81,73604.5,-2.59,-3.35,-3.35,0,*5C
1507676790.1,20753,9.81,73600.3,-2.59,-3.27,-3.35,0,*5E
1507676791.32,20754,9.81,73600.8,-2.59,-3.39,-3.35,0,*56
1507676792.54,20755,9.81,73602.8,-2.59,-3.35,-3.35,0,*5B
1507676793.77,20756,9.81,73602.8,-2.59,-3.35,-3.35,0,*58
1507676794.99,20757,9.81,73600.0,-2.59,-3.35,-3.39,0,*55
1507676796.22,20758,9.81,73606.0,-2.59,-3.39,-3.35,0,*5A
1507676797.44,20759,9.81,73602.8,-2.59,-3.35,-3.35,0,*57
1507676798.67,20760,9.81,73606.8,-2.59,-3.35,-3.35,0,*5D
1507676799.89,20761,9.81,73608.8,-2.59,-3.35,-3.35,0,*5C
1507676801.12,20762,9.81,73604.0,-2.59,-3.35,-3.35,0,*5F
1507676802.34,20763,9.81,73594.8,-2.59,-3.35,-3.35,0,*5E
1507676803.56,20764,9.81,73598.3,-2.59,-3.39,-3.39,0,*59
1507676804.79,20765,9.81,73606.3,-2.59,-3.39,-3.39,0,*58
1507676806.01,20766,9.81,73608.3,-2.59,-3.35,-3.39,0,*57
1507676807.24,20767,9.81,73614.3,-2.59,-3.35,-3.39,0,*56
1507676808.46,20768,9.81,73610.3,-2.59,-3.35,-3.35,0,*55
1507676809.69,20769,9.81,73622.5,-2.59,-3.39,-3.35,0,*58
1507676810.91,20770,9.81,73614.0,-2.59,-3.35,-3.39,0,*50
1507676812.13,20771,9.81,73608.5,-2.59,-3.39,-3.39,0,*5D
1507676813.36,20772,9.81,73596.5,-2.59,-3.27,-3.35,0,*5D
1507676814.55,20773,9.81,73590.0,-2.57,-3.23,-3.35,0,*56
1507676815.77,20774,9.81,73572.8,-2.59,-3.27,-3.35,0,*5B
1507676817.0,20775,9.81,73568.3,-2.59,-3.39,-3.35,0,*55
1507676818.22,20776,9.81,73562.3,-2.59,-3.27,-3.27,0,*5A
1507676819.45,20777,9.81,73560.0,-2.59,-3.35,-3.35,0,*5B
1507676820.67,20778,9.81,73568.3,-2.59,-3.39,-3.35,0,*58
1507676821.9,20779,9.81,73574.0,-2.59,-3.35,-3.35,0,*55
1507676823.09,20780,9.81,73578.8,-2.57,-3.35,-3.31,0,*59
1507676824.31,20781,9.81,73586.0,-2.59,-3.35,-3.35,0,*52
1507676825.51,20782,9.81,73588.0,-2.57,-3.31,-3.35,0,*5B
1507676826.73,20783,9.81,73610.3,-2.59,-3.39,-3.35,0,*5C
1507676827.96,20784,9.81,73610.0,-2.59,-3.39,-3.35,0,*5B
1507676829.15,20785,9.81,73604.0,-2.57,-3.31,-3.31,0,*58
1507676830.37,20786,9.81,73604.3,-2.59,-3.35,-3.39,0,*59
1507676831.6,20787,9.81,73602.3,-2.59,-3.35,-3.35,0,*54
1507676832.82,20788,9.81,73604.3,-2.59,-3.35,-3.39,0,*57
1507676834.05,20789,9.81,73602.3,-2.59,-3.35,-3.39,0,*56
1507676835.27,20790,9.81,73600.0,-2.59,-3.35,-3.39,0,*5E
1507676836.46,20791,9.81,73600.5,-2.57,-3.23,-3.35,0,*5A
1507676837.68,20792,9.81,73598.8,-2.59,-3.35,-3.39,0,*5C
1507676838.91,20793,9.81,73590.8,-2.59,-3.35,-3.39,0,*5D
1507676840.13,20794,9.81,73592.5,-2.59,-3.39,-3.35,0,*5A
1507676841.36,20795,9.81,73594.8,-2.59,-3.35,-3.39,0,*5B
1507676842.55,20796,9.81,73596.8,-2.57,-3.35,-3.35,0,*5A
1507676843.77,20797,9.81,73592.8,-2.59,-3.35,-3.35,0,*55
1507676845.0,20798,9.81,73590.0,-2.59,-3.39,-3.35,0,*56
1507676846.22,20799,9.81,73586.3,-2.59,-3.39,-3.39,0,*5B
1507676847.42,20800,9.81,73580.0,-2.57,-3.35,-3.35,0,*5A
1507676848.64,20801,9.81,73582.8,-2.59,-3.35,-3.39,0,*59
1507676849.87,20802,9.81,73580.3,-2.59,-3.39,-3.39,0,*56
1507676851.09,20803,9.81,73580.3,-2.59,-3.35,-3.39,0,*5B
1507676852.33,20804,9.81,73570.3,-2.59,-3.39,-3.43,0,*5D
1507676853.56,20805,9.81,73560.5,-2.59,-3.39,-3.39,0,*51
1507676854.78,20806,9.81,73572.3,-2.59,-3.39,-3.39,0,*52
1507676856.01,20807,9.81,73564.0,-2.59,-3.39,-3.39,0,*53
1507676857.23,20808,9.81,73572.0,-2.59,-3.39,-3.39,0,*5C
1507676858.45,20809,9.81,73572.0,-2.59,-3.39,-3.39,0,*5D
1507676859.68,20810,9.81,73564.3,-2.59,-3.35,-3.39,0,*59
1507676860.9,20811,9.81,73570.8,-2.59,-3.39,-3.39,0,*54
1507676862.09,20812,9.81,73568.5,-2.57,-3.35,-3.31,0,*5D
1507676863.32,20813,9.81,73568.5,-2.59,-3.35,-3.39,0,*5A
1507676864.54,20814,9.81,73578.0,-2.59,-3.39,-3.39,0,*51
1507676865.74,20815,9.81,73570.8,-2.61,-3.39,-3.39,0,*5B
1507676866.94,20816,9.81,73568.3,-2.61,-3.39,-3.39,0,*58
1507676868.13,20817,9.81,73578.5,-2.61,-3.39,-3.39,0,*59
1507676869.33,20818,9.81,73584.5,-2.61,-3.39,-3.39,0,*56
1507676870.56,20819,9.81,73594.5,-2.59,-3.39,-3.39,0,*5C
1507676871.78,20820,9.81,73592.8,-2.59,-3.35,-3.35,0,*56
1507676872.97,20821,9.81,73600.3,-2.57,-3.35,-3.31,0,*5D
1507676874.2,20822,9.81,73602.8,-2.59,-3.35,-3.39,0,*58
1507676875.42,20823,9.81,73604.3,-2.59,-3.35,-3.35,0,*55
1507676876.65,20824,9.81,73606.8,-2.59,-3.35,-3.35,0,*52
1507676877.87,20825,9.81,73598.8,-2.59,-3.27,-3.35,0,*50
1507676879.1,20826,9.81,73590.8,-2.59,-3.35,-3.35,0,*50
1507676880.29,20827,9.81,73594.3,-2.57,-3.35,-3.35,0,*5F
1507676881.51,20828,9.81,73590.0,-2.59,-3.39,-3.35,0,*52
1507676882.74,20829,9.81,73596.3,-2.59,-3.35,-3.35,0,*5F
1507676883.96,20830,9.81,73600.3,-2.59,-3.39,-3.35,0,*5B
1507676885.19,20831,9.81,73606.0,-2.59,-3.35,-3.35,0,*56
1507676886.41,20832,9.81,73614.3,-2.59,-3.35,-3.35,0,*55
1507676887.64,20833,9.81,73612.0,-2.59,-3.39,-3.39,0,*54
1507676888.86,20834,9.81,73610.8,-2.59,-3.35,-3.39,0,*5F
1507676890.08,20835,9.81,73604.0,-2.59,-3.39,-3.39,0,*52
1507676891.31,20836,9.81,73596.5,-2.59,-3.39,-3.39,0,*51
1507676892.53,20837,9.81,73598.0,-2.59,-3.39,-3.35,0,*5C
1507676893.76,20838,9.81,73594.8,-2.59,-3.39,-3.39,0,*5F
1507676894.98,20839,9.81,73588.5,-2.59,-3.39,-3.39,0,*5E
1507676896.17,20840,9.81,73590.8,-2.57,-3.35,-3.35,0,*5E
1507676897.4,20841,9.81,73588.8,-2.59,-3.39,-3.39,0,*51
1507676898.62,20842,9.81,73592.0,-2.59,-3.39,-3.39,0,*52
1507676899.85,20843,9.81,73590.3,-2.59,-3.39,-3.39,0,*53
1507676901.04,20844,9.81,73596.8,-2.57,-3.39,-3.39,0,*5A
1507676902.26,20845,9.81,73592.8,-2.59,-3.39,-3.39,0,*55
1507676903.49,20846,9.81,73596.0,-2.59,-3.39,-3.39,0,*56
1507676904.71,20847,9.81,73590.0,-2.59,-3.39,-3.39,0,*57
1507676905.94,20848,9.81,73590.8,-2.59,-3.39,-3.39,0,*58
1507676907.16,20849,9.81,73586.5,-2.59,-3.35,-3.39,0,*55
1507676908.38,20850,9.81,73582.3,-2.59,-3.39,-3.39,0,*51
1507676909.61,20851,9.81,73572.5,-2.59,-3.39,-3.39,0,*50
1507676910.83,20852,9.81,73576.0,-2.59,-3.39,-3.39,0,*53
1507676912.08,20853,9.81,73570.0,-2.59,-3.39,-3.43,0,*5F